Location: Middelsbur
(53.6609°N, 7.5020°E)
Time: 22:51:11
(UTC+00:00)

BREEZE-M DEB (TANK) - Pass Details

Date: 06 July 2020
Orbit: 328 x 12048 km, 49.6° (Epoch: 14 August)

Event Time Altitude Azimuth Distance (km) Brightness Sun altitude
Rises 21:51:52 0° 273° (W) 4,602 7.2 -10.6°
Reaches altitude 10° 21:56:12 10° 268° (W) 2,570 5.8 -10.8°
Maximum altitude 22:00:48 39° 198° (SSW) 725 2.4 -11.1°
Enters shadow 22:02:33 17° 134° (SE) 1,065 3.0 -11.2°
